{"data":{"norad_id":58133,"intl_designator":"2023-162R","name":"STARLINK-30758","alt_names":[],"object_type":"PAYLOAD","status":"ACTIVE","operator":null,"country":"US","launch_date":"2023-10-22","launch_site_code":"AFETR","launch_vehicle":null,"mission":null,"orbit_class":"UNKNOWN","rcs_meters":null,"size_class":null,"mass_kg":null,"dimensions":null,"purposes":["comms"],"wikipedia_slug":null,"has_3d_model":false,"image_url":null,"decayed_at":null,"tle_current":{"epoch":"2026-09-20T22:07:50.477664Z","epoch_age_seconds":104006,"freshness":"FRESH","line1":"1 58133U 23162R   26263.92211201  .00000098  00000+0  13071-4 0  9993","line2":"2 58133  42.9998 106.6606 0001297 267.9844  92.0859 15.27578954162204","mean_motion":15.27578954,"eccentricity":0.0001297,"inclination_deg":42.9998,"raan_deg":106.6606,"arg_perigee_deg":267.9844,"mean_anomaly_deg":92.0859,"bstar":1.3071e-5,"rev_number":16220,"period_min":94.26681326221,"perigee_km":482.16233189885,"apogee_km":483.94212438463,"semimajor_km":6861.1892281417,"source":"CELESTRAK","updated_at":"2026-09-21T09:00:33.793709Z"}}}